Hourly Data Report for July 09, 2021

ST. JOHN'S INTL A
NEWFOUNDLAND
Current Station Operator: NAVCAN

47°37'07.000" N
52°45'09.000" W
140.50 m
8403505
71801
YYT

Download Data

Hourly Data (July 2021)
Hourly Data Report for July 9, 2021
TIME
LST
Temp Definition
°C
Dew Point Definition
°C
Rel Hum Definition
%
Precip. Amount Definition
mm

Wind Dir Definition
10's deg

Wind Spd Definition
km/h
Visibility Definition
km
Stn Press Definition
kPa
Hmdx Definition


Wind Chill Definition


Weather Definition


00:30 6.6 4.7 88   24 8 24.1 101.00     LegendNANA
01:30 6.1 4.2 88   24 9 24.1 101.05     LegendNANA
02:30 5.9 3.6 85   23 9 24.1 101.09     Clear
03:30 5.9 4.7 92   25 11 24.1 101.10     LegendNANA
04:30 6.4 4.6 88   25 13 24.1 101.16     LegendNANA
05:30 8.8 5.2 78   23 12 24.1 101.18     Mainly Clear
06:30 12.0 5.9 66   25 7 24.1 101.22     LegendNANA
07:30 14.4 7.3 62   22 14 24.1 101.25     LegendNANA
08:30 15.6 7.3 57   22 13 24.1 101.25     Mainly Clear
09:30 16.8 7.5 54   22 11 24.1 101.23     LegendNANA
10:30 17.9 8.9 55   19 21 24.1 101.20     LegendNANA
11:30 17.4 8.9 57   20 25 24.1 101.18     Mainly Clear
12:30 17.8 9.0 56   19 24 24.1 101.11     LegendNANA
13:30 18.0 9.9 59   18 26 24.1 101.13     LegendNANA
14:30 17.8 8.8 55   19 29 24.1 101.08     Mainly Clear
15:30 16.8 8.2 56   20 35 24.1 101.05     LegendNANA
16:30 15.2 8.8 65   20 33 24.1 101.03     LegendNANA
17:30 12.8 8.9 77   20 33 24.1 100.98     Cloudy
18:30 11.5 9.4 87   20 31 24.1 100.97     LegendNANA
19:30 11.1 9.1 87   20 23 24.1 100.94     LegendNANA
20:30 11.1 9.2 88   21 23 24.1 100.89     Cloudy
21:30 12.0 8.7 80   23 25 24.1 100.84     LegendNANA
22:30 12.1 8.9 81   21 31 24.1 100.77     LegendNANA
23:30 12.2 9.8 86   20 41 24.1 100.65     Cloudy

Notes on Data Quality.

Legend

  • E = Estimated
  • M = Missing
  • NA = Not Available*
  • [empty] = Indicates an unobserved value
Date modified: